Regional Weather Roundup
Issued by NWS Upton, NY

Current Version | Previous Version | Text Only | Print | Product List | Glossary On
Versions: 1 2 3 4 5 6 7 8 9 10 11 12 13 14 15 16 17 18 19 20 21 22 23 24 25 26 27 28 29 30 31 32 33 34 35 36 37 38 39 40 41 42 43 44 45 46 47 48 49 50
000 ASUS41 KOKX 271204 RWROKX REGIONAL WEATHER ROUNDUP NATIONAL WEATHER SERVICE NEW YORK NY 800 AM EDT THU AUG 27 2015 NOTE: "FAIR" INDICATES FEW OR NO CLOUDS BELOW 12,000 FEET WITH NO SIGNIFICANT WEATHER AND/OR OBSTRUCTIONS TO VISIBILITY. NYZ071-072-176-178-NJZ106-104-271300- NEW YORK CITY METRO AREA CITY SKY/WX TMP DP RH WIND PRES REMARKS CENTRAL PARK PTSUNNY 69 54 58 CALM 30.08R LAGUARDIA APRT PTSUNNY 69 55 60 NW13 30.05R KENNEDY INTL MOSUNNY 71 55 56 NW8 30.06R NEWARK/LIBERTY MOSUNNY 71 56 58 NW10 30.06R BRNX BOT. GARD N/A 66 54 63 NW3 30.07R TETERBORO CLOUDY 68 54 60 NW8 30.05R $$ NYZ177-179-078>081-271300- LONG ISLAND NEW YORK CITY SKY/WX TMP DP RH WIND PRES REMARKS FARMINGDALE SUNNY 69 58 67 VRB3 30.05R ISLIP MOSUNNY 68 58 70 W3 30.03R SHIRLEY SUNNY 69 58 67 CALM 30.05R WESTHAMPTON SUNNY 68 59 73 CALM 30.05R MONTAUK POINT N/A 70 56 61 NW7 30.04R $$ NYZ052-065-067-271300- HUDSON VALLEY CITY SKY/WX TMP DP RH WIND PRES REMARKS WHITE PLAINS MOSUNNY 67 57 70 NW5 30.05R NEWBURGH SUNNY 63 59 88 W9 30.05S MONTGOMERY SUNNY 65 56 72 W8 30.06R POUGHKEEPSIE SUNNY 62 57 83 CALM 30.05R ALBANY PTSUNNY 65 56 72 W7 30.05R $$ NJZ001-105-106-008-010-013-015-019>022-104-271300- NEW JERSEY CITY SKY/WX TMP DP RH WIND PRES REMARKS NEWARK/LIBERTY MOSUNNY 71 56 58 NW10 30.06R TETERBORO CLOUDY 68 54 60 NW8 30.05R CALDWELL PTSUNNY 66 56 70 NW3 30.07R MORRISTOWN MOSUNNY 66 59 77 NW5 30.08R SOMERVILLE SUNNY 63 56 78 CALM 30.06R SUSSEX SUNNY 61 58 90 CALM 30.09R ANDOVER N/A 59 58 96 CALM 30.10R TRENTON SUNNY 64 56 75 NW6 30.07R MILLVILLE SUNNY 65 57 75 NW7 30.08R ATLANTIC CITY SUNNY 64 56 75 NW6 30.08R WRIGHTSTOWN SUNNY 65 58 75 NW6 30.05R TOMS RIVER SUNNY 63 57 82 NW5 30.07S BELMAR SUNNY 63 54 72 NW6 30.07R $$ PAZ047>061-062-071-271300- EASTERN PENNSYLVANIA CITY SKY/WX TMP DP RH WIND PRES REMARKS PHILADELPHIA MOSUNNY 68 55 63 NW10 30.09R ALLENTOWN SUNNY 64 56 75 CALM 30.10R SCRANTON SUNNY 63 54 72 CALM 30.11R $$ CTZ002-004>006-009-010-012-RIZ004-006-007-MAZ004-011-015-271300- SOUTHERN NEW ENGLAND IN CT CITY SKY/WX TMP DP RH WIND PRES REMARKS BRADLEY INTL MOSUNNY 65 55 70 W3 30.02R HARTFORD SUNNY 63 59 87 CALM 30.03R DANBURY SUNNY 62 55 77 SW5 30.07R WTRBRY/OXFORD SUNNY 63 52 67 N7 30.07R BRIDGEPORT PTSUNNY 66 56 70 NW6 30.04R MERIDEN SUNNY 64 57 78 CALM 30.04R NEW HAVEN SUNNY 67 56 67 N3 30.04R CHESTER NOT AVBL GROTON SUNNY 67 57 70 N7 30.01R WILLIMANTIC SUNNY 60 56 86 CALM 30.03R IN RI CITY SKY/WX TMP DP RH WIND PRES REMARKS PROVIDENCE MOSUNNY 67 54 63 NW5 30.01R BLOCK ISLAND SUNNY 68 57 68 NW6 30.02R WESTERLY SUNNY 67 55 65 NW5 30.02R IN MA CITY SKY/WX TMP DP RH WIND PRES REMARKS BOSTON MOSUNNY 69 54 58 NW12 29.98R WORCESTER SUNNY 61 53 75 W15 30.02R WESTFIELD SUNNY 65 56 72 CALM 30.03R PROVINCETOWN SUNNY 70 55 60 NW14 29.97S NANTUCKET SUNNY 74 61 63 NW8 29.98R $$ ANZ330-335-338-340-345-350-353-355-271300- COASTAL MARINE OBSERVATIONS STATION/POSITION TIME SKY/WX TEMP WIND PRES VSBY WAVE AIR SEA DIR/SP/G HT/PER (UTC) (F) (DEG/KT/KT) (MB) (MI) (FT/S) NY HARB ENTRANCE 1050 70 76 300/ 10/ 12 1016.4 2/10 4S FIRE IS NOT AVBL 20S FIRE ISLAND 1050 71 75 350/ 8/ 10 1016.3 2/10 GREAT SOUTH BAY NOT AVBL 23SW MTP 1150 69 72 340/ 8/ 10 1016.3 2/10 HUDSON CANYON NOT AVBL KINGS POINT 1100 68 72 360/ 6/ 8 1016.2 EXECUTION ROCKS 1100 68 270/ 4/ 6 N/A CENTRAL LI SOUND NOT AVBL EASTERN LI SOUND 1100 69 71 340/ 10/ 12 N/A ROBBINS REEF 1100 67 310/ 6/ 8 1016.1 $$ >>>>>>>>>>>>>>>>>>>>>>>>>>>> KEY <<<<<<<<<<<<<<<<<<<<<<<<<<< > < > SKY/WX - SKY CONDITION/PRESENT WEATHER < > TMP - TEMPERATURE IN FAHRENHEIT < > DP - DEWPOINT IN FAHRENHEIT < > RH - RELATIVE HUMIDITY IN PERCENT < > WIND - DIRECTION AND SPEED IN MPH < > PRES - MEAN SEA LEVEL PRESSURE IN INCHES OF HG < > WCI - WIND CHILL INDEX < > VSB - VISIBILITY IN MILES < > HX - HEAT INDEX < > TC - TEMPERATURE IN CELSIUS < > VRB - VARIABLE WIND DIRECTION < > < >>>>>>>>>>>>>>>>>>>>>>>>>>>> KEY <<<<<<<<<<<<<<<<<<<<<<<<<<<

USA.gov is the U.S. government's official web portal to all federal, state and local government web resources and services.